Погода Марьина Горка

Погода Марьина Горка : погода сейчас, прогноз погоды и архив. Всё, что Вы хотите узнать о погоде Марьина Горка!

Хотите узнать прогноз погоды Марьина Горка? Тогда Вам сюда: Погода Марьина Горка

Поиск расширенной информации на нашем сайте:

Другие новости

Новости СМИ2

Главная страница сайта

Новости сайта

03.07.2017

Напоминаем, что на нашем специализированном сайте Метеоцентр.Азия вы можете получить высокодетализированные автоматические прогнозы погоды по пунктам России, СНГ и мира в авиационном формате (включающие направление и скорость ветра, видимость, явления погоды, количество и форму облачности, нижнюю и верхнюю границу облачности).


Погода Марьина Горка - сегодня

Время (UTC), дата Ветер
(°,м/с) 
Видим.   Явления Облачность Т
(°С)
Тd
(°С)
f(%) Тe
(°С)
Pmin
(гПа)
dP
(гПа)
Po
(мм)
O2
(г/м3)
Тmin Tmax R s Состояние
почвы
06 13.10.18 170 (Ю) 3200 м  дымка  ясно 
+4.7 +4.5 99 +6  1034.6  -0.5  759  300  +1.9         
09 13.10.18 220 (ЮЗ) 15000 м    ясно 
+13.8 +9.8 77 +16  1033.6  -0.3  759  289           
12 13.10.18 230 (ЮЗ) 21000 м    ясно 
+17.9 +9.5 58 +19  1033.1  -0.2  759  285           
15 13.10.18 230 (ЮЗ) 17000 м    1/0 верхняя 
[Ci fib]
+15 +10 72 +17  1031.8  -1.4  758  288           
18 13.10.18 тихо ()   5000 м  дымка  ясно 
+8.4 +7.8 96 +8  1032.5  0.1  758  295    +18.3       
21 13.10.18 тихо ()   2500 м  дымка  3/0 верхняя 
[Ci fib]
+5 +4.7 98 +5  1033  0.2  758  299           
00 14.10.18 тихо ()   0200 м  туман  ясно 
+2.8 +2.8 100 +3  1032.9  -0.2  758  302           
06 14.10.18 тихо ()   0100 м  туман  ясно 
+3.4 +3.4 100 +3  1033  -0.1  758  301  +2         
09 14.10.18 тихо ()   1200 м  в посл. час туман  ясно 
+10.4 +10 97 +11  1032.4  758  292           
12 14.10.18 180 (Ю) 16000 м  {туман}  ясно 
+18.4 +11 62 +22  1030.4  -1.4  757  284           
15 14.10.18 тихо ()   16000 м    ясно 
+15.9 +10 68 +17  1029.6  -0.9  756  286           
18 14.10.18 170 (Ю) 9000 м  дымка  ясно 
+8.9 +7.7 92 +10  1030.3  0.1  756  294    +19.7       
21 14.10.18 тихо ()   7000 м  дымка  ясно 
+5 +4.3 95 +5  1031.1  0.5  757  299           
00 15.10.18 тихо ()   7000 м  дымка  ясно 
+4.4 +3.5 94 +4  1030.7  -0.5  756  299           
06 15.10.18 170 (Ю) 12000 м    3/0 верхняя 
[Ci fib]
+5.3 +3.2 86 +6  1030.8  757  299  +2.3         
09 15.10.18 200 (Ю) 20000 м    8/0 верхняя 
[Ci fib]
+14.6 +7.4 62 +16  1029.9  -0.1  757  288           
12 15.10.18 190 (Ю) 25000 м    8/0 верхняя 
[Ci fib]
+18.8 +7.3 47 +20  1028.6  -1  756  284           
15 15.10.18 150 (ЮВ) 20000 м    8/0 верхняя 
[Cs]
+14.9 +7.7 62 +16  1028.3  -0.6  755  287           
18 15.10.18 140 (ЮВ) 17000 м    6/0 верхняя 
[Ci fib]
+11.1 +6.2 72 +12  1028.6  755  291    +19.1       
21 15.10.18 170 (Ю) 14000 м    ясно 
+8.3 +5.1 80 +9  1028.2  -0.6  755  294           
00 16.10.18 170 (Ю) 12000 м    ясно 
+7.1 +4.1 81 +8  1028.3  755  296           
06 16.10.18 170 (Ю) 11000 м    3/0 верхняя 
[Ci fib]
+6.2 +3.9 85 +6  1027.9  -0.4  755  297  +4.9         
09 16.10.18 180 (Ю) 19000 м    1/0 верхняя 
[Ci fib]
+15.1 +7.4 60 +16  1027.2  755  287           
12 16.10.18 180 (Ю) 22000 м    ясно 
+19.5 +6.6 43 +21  1025.7  -1.1  754  282           
15 16.10.18 тихо ()   19000 м    3/0 верхняя 
[Ci fib]
+16.4 +8.6 60 +16  1025.6  -0.3  753  285           
Время (UTC), дата Ветер
(°,м/с) 
Видим.   Явления Облачность Т
(°С)
Тd
(°С)
f(%) Тe
(°С)
Pmin
(гПа)
dP
(гПа)
Po
(мм)
O2
(г/м3)
Тmin Tmax R s Состояние
почвы

Для получения пояснительной информации подведите курсор к названию столбца.

ПОГОДА Марьина Горка - архив

Всё, что Вы хотите узнать о погоде Марьина Горка - удобно и подробно!

Выберите нужную дату (начиная с 1 января 2015* года) и нажмите кнопку "Найти".
Будут отображены архивные сводки погоды по пункту Марьина Горка, начиная с указанной даты.


Отображать данные в формате CSV (для использования в таблицах Excel)


Внимание! Наш архив погоды предназначен исключительно для личного некоммерческого использования в познавательных целях. Если Вам необходимы официальные справки о состоянии погоды (для производственных, юридических, коммерческих и т.п. целей), обращайтесь в органы Росгидромета.

*Примечание: данная дата относится к архиву по метеостанциям СССР (Россия, СНГ, Балтия).
Архив по метеостанциям Зарубежной Европы и Азии (кроме Китая) хранится 10 дней, по другим регионам земного шара (Китай, Африка, Америка, Австралия, Океания) - 1 день.

Марьина Горка - район местоположения метеостанции


Название, широта, долгота, высота метеостанции:
Марьина Горка 55.4°ш. 28.1°д. 177 м над ур. моря [Беларусь]

Дополнительная информация

В oтличие oт бoльшинства пoгoдных сайтoв мы публикуем пoдрoбную метеoинфoрмацию в детальнoм прoфессиoнальнoм фoрмате.

Характеристики температуры и влажнoсти вoздуха измеряются на высoте 2 м в тени вдали oт зданий и деревьев.
Скoрoсть ветра измеряется на высoте 10 м (на урoвне рoста челoвека скoрoсть ветра ниже в 1.5-2 раза). Если метеoстанция нахoдится в гoрoде или в лесу, тo скoрoсть ветра занижена на 2-4 м/с пo сравнению с oткрытым местoм. Скoрoсть ветра над акватoриями крупных рек и oзёр, а также на вершинах хoлмoв на 2-5 м/с выше, чем в oбычных услoвиях.
Атмoсфернoе давление в разных тoчках местнoсти мoжет значительнo oтличаться oт давления на метеoстанции, в зависимoсти oт услoвий рельефа (при пoдъёме на 10 м давление пoнижается примернo на 1 мм рт.ст.).